Location: San Martino di Castrozza
(46.2667°N, 11.8000°E)
Time: 02:48:08
(UTC+00:00)

Cosmos 858 Rocket - Pass Details

Date: 23 April 2021
Orbit: 755 x 775 km, 74.1° (Epoch: 15 May)

Event Time Altitude Azimuth Distance (km) Brightness Sun altitude
Exits shadow 01:54:32 45° 230° (SW) 1,022 4.7 -20.7°
Maximum altitude 01:56:00 67° 294° (WNW) 822 4.5 -20.5°
Drops below altitude 10° 02:01:11 10° 17° (NNE) 2,299 7.9 -19.9°
Sets 02:03:35 0° 20° (NNE) 3,231 8.9 -19.6°
